Regional Weather Roundup
Issued by NWS Mobile, AL

Home | Current Version | Previous Version | Text Only | Print | Product List | Glossary On
Versions: 1 2 3 4 5 6 7 8 9 10 11 12 13 14 15 16 17 18 19 20 21 22 23 24 25 26 27 28
000
ASUS44 KMOB 201112
RWRMOB
REGIONAL WEATHER ROUNDUP
NATIONAL WEATHER SERVICE MOBILE AL
500 AM CST FRI JAN 20 2017

NOTE: "FAIR" INDICATES FEW OR NO CLOUDS BELOW 12,000 FEET WITH NO
      SIGNIFICANT WEATHER AND/OR OBSTRUCTIONS TO VISIBILITY.

  * THESE STATIONS ARE PART OF THE UNIVERSITY OF SOUTH ALABAMA
    MESONET AND ARE NOT UNDER NWS OR FAA QUALITY CONTROL.

ALZ061>064-201200-
COASTAL ALABAMA

CITY           SKY/WX    TMP DP  RH WIND       PRES   REMARKS
MOBILE REG APT CLEAR     62  60  93 S6        29.83S
BROOKLEY FIELD CLOUDY    65  65 100 S3        29.84S FOG
USA CAMPUS*    NOT AVBL
DOG RIVER*     NOT AVBL


CITY           SKY/WX    TMP DP  RH WIND       PRES   REMARKS
GULF SHORES    CLEAR     64  64 100 E7        29.83S

$$

ALZ051>060-201200-
INTERIOR SOUTHWEST AND SOUTH CENTRAL ALABAMA

CITY           SKY/WX    TMP DP  RH WIND       PRES   REMARKS
GREENVILLE     CLOUDY    64  60  87 S6        29.83R
EVERGREEN      CLOUDY    63  61  93 S10       29.84S
ATMORE*        NOT AVBL
ANDALUSIA/OPP  CLOUDY    67  63  87 S3        29.85S
ANDALUSIA*     NOT AVBL
FLORALA APT    CLOUDY    64  62  93 SW6       29.87R
FLORALA*       NOT AVBL

$$

FLZ001>006-201200-
WESTERN FLORIDA PANHANDLE

CITY           SKY/WX    TMP DP  RH WIND       PRES   REMARKS
PENSACOLA      PTCLDY    65  63  93 S6        29.83F
NAS PENSACOLA  FOG       63  62  97 CALM      29.83F VSB 3/4
MILTON         LGT RAIN  64  63  96 S6        29.84S
WHTNG S FIELD  MOCLDY    67  64  90 S3        29.84F


CITY           SKY/WX    TMP DP  RH WIND       PRES   REMARKS
JAY*           NOT AVBL
DUKE FIELD     CLEAR     63  63 100 S5        29.84S FOG
CRESTVIEW      CLOUDY    65  64  97 S5        29.87S
VALPARAISO     PTCLDY    67  65  96 SW3       29.85S
DESTIN         PTCLDY    71  70  96 SW5       29.85S

$$

MSZ076-079-201200-
INTERIOR SOUTHEAST MISSISSIPPI

CITY           SKY/WX    TMP DP  RH WIND       PRES   REMARKS
LEAKESVILLE*   NOT AVBL
AGRICOLA*      NOT AVBL

$$

MARINE OBSERVATIONS

STATION/POSITION TIME  TEMP    WIND        PRES    WAVE
                       AIR SEA DIR/SP/G            HT/PER
                 (UTC) (F)     (DEG/KT/KT) (MB)    (FT/S)
PASCAGOULA       1048   65     190/  6/  8 1009.6R
PETIT BOIS ISLND 1048   64     200/  9/ 11 1010.3S
GRAND BAY        0945   66     200/  7     1011.0S
KATRINA CUT      1030          180/  9     1009.5F
CEDAR POINT      1030   65     180/  8     1009.8F
E DAUPHIN ISLAND 1000   64     180/  5/  6 1009.6F
MIDDLE BAY LIGHT 1030   65     170/  8     1009.8F
USCG MOBILE BAY  1048   65 66  180/  4/  4 1010.5F
STATE DOCKS      1042   64 62              1009.7F
MEAHER PARK      1030   65     160/  5     1009.5F
WEEKS BAY        0945   65                   N/A
FORT MORGAN      1048   66     190/ 12/ 12   N/A
12 S ORANGE BCH  1050   66 65  170/  6/  8 1010.2F   4/ 6
PENSACOLA BAY    1042   66 67  180/  3/  4 1010.3F
67 S FORT MORGAN 1030   71                 1010.5F

$$

SELECTED LOCATIONS ACROSS THE REGION

CITY           SKY/WX    TMP DP  RH WIND       PRES   REMARKS
NEW ORLEANS    PTCLDY    64  64 100 S5        29.80S
GULFPORT       PTCLDY    65  63  93 S5        29.81R
PASCAGOULA AP  PTCLDY    59  57  93 CALM      29.82S FOG
PASCAGOULA*    NOT AVBL
HATTIESBURG    CLOUDY    63  61  93 CALM      29.81R
LAUREL         CLOUDY    61  57  88 CALM      29.82S
MERIDIAN       CLOUDY    62  61  96 S6        29.80R
JACKSON        CLOUDY    58  57  97 S7        29.76F
MONTGOMERY     CLOUDY    65  60  84 S5        29.82S
TROY           CLOUDY    64  63  96 SW7       29.85R
ASHFORD*       NOT AVBL
DOTHAN         CLOUDY    63  63 100 SW13      29.89R
PANAMA CITY    MOCLDY    65  63  93 SE5       29.86S

$$





USA.gov is the U.S. government's official web portal to all federal, state and local government web resources and services.